Location: Hanover
(52.3667°N, 9.7167°E)
Time: 14:54:46
(UTC+02:00)

Envisat - Pass Details

Date: 25 September 2024
Orbit: 762 x 764 km, 98.3° (Epoch: 09 October)

Event Time Altitude Azimuth Distance (km) Brightness Sun altitude
Rises 04:46:28 0° 14° (NNE) 3,240 6.9 -22.2°
Reaches altitude 10° 04:48:47 10° 15° (NNE) 2,309 6.1 -21.9°
Maximum altitude 04:53:53 90° 123° (ESE) 770 2.9 -21.2°
Enters shadow 04:56:12 34° 196° (SSW) 1,250 3.7 -20.9°
